カタログに戻る

STARLINK-34368

運用中通信VLEO
NORAD 64311·PAYLOAD·🇺🇸 United States

打ち上げ Jun 8, 2025 から Vandenberg Space Force Base

Loading…

次のパス (今後24時間)

TLE

最新Source: CelesTrak SupGP

元期: Sep 14, 2026, 21:03 UTC

1 64311C 25123W   26257.87756944  .00002328  00000+0  80984-4 0  2574
2 64311  70.0002  75.8573 0003262 273.5560 199.2222 15.29572097    17

AllMySatでSTARLINK-34368をリアルタイム追跡

Download on the App Store